MAS714 WADD-WBKK

Flight info

Callsign MAS714
Flight time N/A
Altitude 39000
Route DOBMA1B/27 DOBMA M522 ELANG/N0458F370 M522 ELPOX
Aircraft A339/H-SADE1E2E3GHIJ3J5M1P2RWXY/LB2D1

Departure

Time N/A
Airport Denpasar I Gusti Ngurah Rai International Airport (WADD)

Arrival

Time 2026-04-26 07:22
Airport Kota Kinabalu International Airport (WBKK)
Time Latitude Longitude Altitude Speed Heading
2026-04-26 06:14 -1.53219 114.85332 38823 ft 481 kts
2026-04-26 06:15 -1.49918 114.85229 38824 ft 481 kts
2026-04-26 06:15 -1.43273 114.85020 38828 ft 481 kts
2026-04-26 06:16 -1.36597 114.84810 38833 ft 480 kts
2026-04-26 06:16 -1.29953 114.84601 38835 ft 480 kts
2026-04-26 06:17 -1.23316 114.84392 38837 ft 480 kts
2026-04-26 06:17 -1.16628 114.84181 38839 ft 481 kts
2026-04-26 06:18 -1.10002 114.83973 38843 ft 481 kts
2026-04-26 06:18 -1.03350 114.83765 38846 ft 480 kts
2026-04-26 06:19 -0.96674 114.83632 38848 ft 479 kts
2026-04-26 06:19 -0.90074 114.84070 38849 ft 477 kts
2026-04-26 06:20 -0.83539 114.85143 38850 ft 476 kts 13°
2026-04-26 06:20 -0.77087 114.86380 38849 ft 476 kts 13°
2026-04-26 06:21 -0.70618 114.87618 38849 ft 476 kts 13°
2026-04-26 06:21 -0.64137 114.88852 38849 ft 476 kts 13°
2026-04-26 06:22 -0.57629 114.90088 38849 ft 476 kts 13°
2026-04-26 06:22 -0.51153 114.91317 38849 ft 476 kts 13°
2026-04-26 06:23 -0.44663 114.92549 38849 ft 476 kts 13°
2026-04-26 06:23 -0.38225 114.93771 38849 ft 476 kts 13°
2026-04-26 06:24 -0.32786 114.94802 38849 ft 476 kts 13°
2026-04-26 06:24 -0.25243 114.96233 38849 ft 476 kts 13°
2026-04-26 06:25 -0.18743 114.97465 38849 ft 476 kts 13°
2026-04-26 06:25 -0.13346 114.98490 38849 ft 476 kts 13°
2026-04-26 06:26 -0.05788 114.99927 38849 ft 476 kts 13°
2026-04-26 06:26 0.00686 115.01157 38849 ft 476 kts 13°
2026-04-26 06:27 0.07179 115.02390 38849 ft 477 kts 13°
2026-04-26 06:27 0.13673 115.03623 38849 ft 477 kts 13°
2026-04-26 06:28 0.20155 115.04853 38849 ft 477 kts 13°
2026-04-26 06:28 0.26627 115.06082 38849 ft 477 kts 13°
2026-04-26 06:29 0.33130 115.07316 38849 ft 477 kts 13°
2026-04-26 06:29 0.39656 115.08555 38849 ft 477 kts 13°
2026-04-26 06:30 0.46144 115.09786 38849 ft 477 kts 13°
2026-04-26 06:30 0.52654 115.11022 38849 ft 478 kts 13°
2026-04-26 06:31 0.59142 115.12254 38849 ft 478 kts 13°
2026-04-26 06:31 0.65680 115.13495 38849 ft 478 kts 13°
2026-04-26 06:32 0.72181 115.14728 38849 ft 478 kts 13°
2026-04-26 06:32 0.78693 115.15965 38849 ft 478 kts 13°
2026-04-26 06:33 0.84123 115.16996 38849 ft 479 kts 13°
2026-04-26 06:33 0.91705 115.18435 38850 ft 479 kts 13°
2026-04-26 06:34 0.98233 115.19675 38851 ft 479 kts 13°
2026-04-26 06:34 1.04750 115.20914 38851 ft 479 kts 13°
2026-04-26 06:35 1.11265 115.22151 38851 ft 479 kts 13°
2026-04-26 06:35 1.17821 115.23395 38852 ft 480 kts 13°
2026-04-26 06:36 1.24361 115.24636 38860 ft 480 kts 13°
2026-04-26 06:36 1.30873 115.25873 38873 ft 480 kts 13°
2026-04-26 06:37 1.37395 115.27111 38884 ft 480 kts 13°
2026-04-26 06:37 1.43912 115.28348 38892 ft 480 kts 13°
2026-04-26 06:38 1.50451 115.29591 38898 ft 480 kts 13°
2026-04-26 06:38 1.57000 115.30834 38902 ft 480 kts 13°
2026-04-26 06:39 1.63496 115.32069 38903 ft 480 kts 13°
2026-04-26 06:39 1.70061 115.33315 38904 ft 480 kts 13°
2026-04-26 06:40 1.76569 115.34552 38904 ft 480 kts 13°
2026-04-26 06:40 1.83082 115.35789 38904 ft 480 kts 13°
2026-04-26 06:41 1.88520 115.36822 38904 ft 480 kts 13°
2026-04-26 06:41 1.96137 115.38270 38904 ft 480 kts 13°
2026-04-26 06:42 2.02675 115.39513 38904 ft 480 kts 13°
2026-04-26 06:42 2.09225 115.40757 38904 ft 479 kts 13°
2026-04-26 06:43 2.15779 115.42003 38903 ft 479 kts 13°
2026-04-26 06:43 2.22268 115.43236 38897 ft 479 kts 13°
2026-04-26 06:44 2.28824 115.44482 38889 ft 479 kts 13°
2026-04-26 06:44 2.35354 115.45723 38883 ft 480 kts 13°
2026-04-26 06:45 2.41865 115.46961 38879 ft 480 kts 13°
2026-04-26 06:45 2.48426 115.48209 38873 ft 480 kts 13°
2026-04-26 06:46 2.54948 115.49449 38851 ft 480 kts 13°
2026-04-26 06:46 2.61480 115.50691 38835 ft 480 kts 13°
2026-04-26 06:47 2.67995 115.51931 38828 ft 480 kts 13°
2026-04-26 06:47 2.74550 115.53178 38824 ft 480 kts 13°
2026-04-26 06:48 2.80934 115.54389 38817 ft 460 kts 13°
2026-04-26 06:48 2.87190 115.55579 38821 ft 459 kts 13°
2026-04-26 06:49 2.93425 115.56770 38822 ft 459 kts 13°
2026-04-26 06:49 2.99724 115.57973 38822 ft 461 kts 12°
2026-04-26 06:50 3.05979 115.59165 38732 ft 463 kts 12°
2026-04-26 06:50 3.09161 115.59769 38193 ft 468 kts 12°
2026-04-26 06:50 3.12317 115.60369 37412 ft 473 kts 12°
2026-04-26 06:50 3.15510 115.60976 36703 ft 475 kts 12°
2026-04-26 06:51 3.18760 115.61593 36115 ft 474 kts 12°
2026-04-26 06:51 3.24057 115.62599 35503 ft 464 kts 12°
2026-04-26 06:51 3.28249 115.63397 35029 ft 456 kts 12°
2026-04-26 06:52 3.31324 115.63982 34668 ft 451 kts 12°
2026-04-26 06:52 3.34377 115.64563 34305 ft 446 kts 12°
2026-04-26 06:52 3.37411 115.65140 33942 ft 442 kts 12°
2026-04-26 06:52 3.40402 115.65710 33577 ft 437 kts 12°
2026-04-26 06:53 3.43360 115.66273 33199 ft 434 kts 12°
2026-04-26 06:53 3.46303 115.66833 32817 ft 430 kts 12°
2026-04-26 06:53 3.49203 115.67386 32433 ft 427 kts 12°
2026-04-26 06:53 3.52087 115.67935 32046 ft 424 kts 12°
2026-04-26 06:54 3.54968 115.68484 31655 ft 421 kts 12°
2026-04-26 06:54 3.57827 115.69029 31265 ft 419 kts 13°
2026-04-26 06:54 3.60675 115.69572 30873 ft 417 kts 13°
2026-04-26 06:54 3.63506 115.70111 30481 ft 414 kts 13°
2026-04-26 06:55 3.66312 115.70646 30088 ft 412 kts 13°
2026-04-26 06:55 3.69091 115.71176 29697 ft 410 kts 13°
2026-04-26 06:55 3.71891 115.71709 29300 ft 408 kts 13°
2026-04-26 06:55 3.74679 115.72241 28901 ft 407 kts 13°
2026-04-26 06:56 3.77441 115.72768 28507 ft 405 kts 13°
2026-04-26 06:56 3.80170 115.73288 28114 ft 404 kts 13°
2026-04-26 06:56 3.82938 115.73816 27714 ft 402 kts 13°
2026-04-26 06:56 3.85650 115.74333 27322 ft 401 kts 13°
2026-04-26 06:57 3.88393 115.74856 26923 ft 400 kts 13°
2026-04-26 06:57 3.91087 115.75369 26532 ft 399 kts 13°
2026-04-26 06:57 3.93810 115.75889 26136 ft 397 kts 12°
2026-04-26 06:57 3.96484 115.76399 25747 ft 396 kts 12°
2026-04-26 06:58 3.99185 115.76914 25354 ft 395 kts 12°
2026-04-26 06:58 4.01876 115.77426 24961 ft 394 kts 12°
2026-04-26 06:58 4.04568 115.77940 24568 ft 393 kts 12°
2026-04-26 06:58 4.07242 115.78450 24179 ft 392 kts 12°
2026-04-26 06:59 4.09890 115.78886 23799 ft 391 kts
2026-04-26 06:59 4.12593 115.79265 23415 ft 390 kts
2026-04-26 06:59 4.15263 115.79626 23043 ft 389 kts
2026-04-26 06:59 4.17929 115.79984 22673 ft 387 kts
2026-04-26 07:00 4.20611 115.80347 22303 ft 385 kts
2026-04-26 07:00 4.23244 115.80704 21943 ft 384 kts
2026-04-26 07:00 4.25848 115.81057 21588 ft 382 kts
2026-04-26 07:00 4.28498 115.81418 21229 ft 380 kts
2026-04-26 07:01 4.31086 115.81770 20880 ft 378 kts
2026-04-26 07:01 4.33667 115.82122 20513 ft 377 kts
2026-04-26 07:01 4.36275 115.82478 20149 ft 376 kts
2026-04-26 07:01 4.38854 115.82829 19799 ft 374 kts
2026-04-26 07:02 4.41402 115.83176 19458 ft 372 kts
2026-04-26 07:02 4.43954 115.83525 19119 ft 371 kts
2026-04-26 07:02 4.46499 115.83871 18783 ft 369 kts
2026-04-26 07:02 4.49024 115.84216 18451 ft 367 kts
2026-04-26 07:03 4.50682 115.84442 18234 ft 365 kts
2026-04-26 07:03 4.54025 115.84898 17799 ft 363 kts
2026-04-26 07:03 4.56515 115.85238 17477 ft 361 kts
2026-04-26 07:03 4.58965 115.85572 17165 ft 359 kts
2026-04-26 07:04 4.61433 115.85908 16847 ft 357 kts
2026-04-26 07:04 4.63882 115.86243 16534 ft 354 kts
2026-04-26 07:04 4.66306 115.86573 16224 ft 352 kts
2026-04-26 07:04 4.68709 115.86900 15917 ft 350 kts
2026-04-26 07:05 4.71136 115.87231 15607 ft 348 kts
2026-04-26 07:05 4.73521 115.87556 15304 ft 346 kts
2026-04-26 07:05 4.75871 115.87877 15006 ft 344 kts
2026-04-26 07:05 4.78226 115.88198 14708 ft 342 kts
2026-04-26 07:06 4.80584 115.88519 14410 ft 340 kts
2026-04-26 07:06 4.82911 115.88837 14117 ft 338 kts
2026-04-26 07:06 4.85222 115.89152 13826 ft 336 kts
2026-04-26 07:06 4.87516 115.89465 13534 ft 334 kts
2026-04-26 07:07 4.89823 115.89689 13242 ft 330 kts 359°
2026-04-26 07:07 4.92091 115.89810 12963 ft 328 kts 358°
2026-04-26 07:07 4.94361 115.89912 12685 ft 325 kts 358°
2026-04-26 07:07 4.96583 115.90009 12414 ft 323 kts 358°
2026-04-26 07:08 4.98822 115.90109 12137 ft 321 kts 358°
2026-04-26 07:08 5.01053 115.90209 11860 ft 319 kts 358°
2026-04-26 07:08 5.03252 115.90308 11592 ft 316 kts 358°
2026-04-26 07:08 5.05413 115.90407 11331 ft 314 kts 358°
2026-04-26 07:09 5.07599 115.90507 11085 ft 311 kts 358°
2026-04-26 07:09 5.09715 115.90604 10840 ft 308 kts 358°
2026-04-26 07:09 5.11873 115.90704 10577 ft 306 kts 358°
2026-04-26 07:09 5.13964 115.90799 10319 ft 303 kts 358°
2026-04-26 07:10 5.20033 115.91081 9761 ft 290 kts 358°
2026-04-26 07:11 5.24047 115.91264 9227 ft 287 kts 358°
2026-04-26 07:11 5.26011 115.91355 8957 ft 285 kts 358°
2026-04-26 07:11 5.28003 115.91446 8642 ft 286 kts 358°
2026-04-26 07:11 5.29991 115.91537 8347 ft 285 kts 358°
2026-04-26 07:12 5.31942 115.91627 8093 ft 283 kts 358°
2026-04-26 07:12 5.33913 115.91718 7860 ft 280 kts 358°
2026-04-26 07:12 5.35806 115.91805 7656 ft 276 kts 358°
2026-04-26 07:12 5.37739 115.91896 7386 ft 275 kts 358°
2026-04-26 07:13 5.39647 115.91983 7054 ft 277 kts 358°
2026-04-26 07:13 5.41563 115.92070 6778 ft 276 kts 359°
2026-04-26 07:13 5.43467 115.92156 6573 ft 272 kts 359°
2026-04-26 07:13 5.45332 115.92245 6368 ft 268 kts 358°
2026-04-26 07:14 5.47192 115.92333 6094 ft 268 kts 359°
2026-04-26 07:14 5.49040 115.92416 5823 ft 267 kts 359°
2026-04-26 07:14 5.50884 115.92499 5604 ft 264 kts 359°
2026-04-26 07:14 5.52688 115.92583 5358 ft 262 kts 360°
2026-04-26 07:15 5.54511 115.92667 5127 ft 260 kts 360°
2026-04-26 07:15 5.56297 115.92753 4865 ft 259 kts 359°
2026-04-26 07:15 5.58101 115.92838 4578 ft 260 kts 359°
2026-04-26 07:15 5.59904 115.92915 4282 ft 261 kts 359°
2026-04-26 07:16 5.61720 115.92999 4030 ft 260 kts 360°
2026-04-26 07:16 5.63500 115.93081 3905 ft 255 kts 360°
2026-04-26 07:16 5.65212 115.93298 3893 ft 248 kts 10°
2026-04-26 07:16 5.66868 115.93829 3638 ft 251 kts 18°
2026-04-26 07:17 5.68491 115.94502 3279 ft 257 kts 20°
2026-04-26 07:17 5.70140 115.95214 2939 ft 261 kts 20°
2026-04-26 07:17 5.71813 115.95933 2711 ft 260 kts 20°
2026-04-26 07:17 5.73430 115.96616 2701 ft 249 kts 19°
2026-04-26 07:18 5.75003 115.97251 2697 ft 239 kts 19°
2026-04-26 07:18 5.76509 115.97861 2699 ft 229 kts 20°
2026-04-26 07:18 5.77484 115.98263 2693 ft 223 kts 19°
2026-04-26 07:18 5.79325 115.99036 2624 ft 213 kts 20°
2026-04-26 07:19 5.80694 115.99615 2368 ft 212 kts 20°
2026-04-26 07:19 5.82035 116.00184 2088 ft 205 kts 20°
2026-04-26 07:19 5.83319 116.00728 1828 ft 198 kts 20°
2026-04-26 07:19 5.84561 116.01253 1577 ft 189 kts 20°
2026-04-26 07:20 5.85737 116.01749 1329 ft 178 kts 21°
2026-04-26 07:20 5.86835 116.02213 1090 ft 170 kts 20°
2026-04-26 07:20 5.87897 116.02660 864 ft 163 kts 20°
2026-04-26 07:20 5.88920 116.03092 668 ft 154 kts 21°
2026-04-26 07:21 5.89888 116.03503 460 ft 148 kts 20°
2026-04-26 07:21 5.90818 116.03906 265 ft 146 kts 20°
2026-04-26 07:21 5.91744 116.04291 77 ft 144 kts 21°
2026-04-26 07:21 5.92649 116.04664 24 ft 126 kts 24°
2026-04-26 07:22 5.93288 116.04936 24 ft 74 kts 22°
2026-04-26 07:22 5.93606 116.05074 24 ft 30 kts 23°
2026-04-26 07:22 5.93677 116.05196 23 ft 18 kts 110°
2026-04-26 07:22 5.93576 116.05241 24 ft 17 kts 192°
2026-04-26 07:23 5.93462 116.05200 24 ft 17 kts 203°
2026-04-26 07:23 5.93349 116.05151 23 ft 17 kts 204°
2026-04-26 07:23 5.93235 116.05098 24 ft 18 kts 206°
2026-04-26 07:23 5.93120 116.05047 23 ft 18 kts 202°
2026-04-26 07:24 5.93000 116.04998 24 ft 18 kts 202°
2026-04-26 07:24 5.92880 116.04947 24 ft 18 kts 202°
2026-04-26 07:24 5.92757 116.04897 24 ft 19 kts 202°
2026-04-26 07:24 5.92635 116.04847 24 ft 19 kts 202°
2026-04-26 07:25 5.92513 116.04793 24 ft 19 kts 204°
2026-04-26 07:25 5.92431 116.04777 24 ft 10 kts 157°
2026-04-26 07:25 5.92378 116.04829 23 ft 11 kts 141°
2026-04-26 07:25 5.92324 116.04858 24 ft 4 kts 155°
2026-04-26 07:26 5.92317 116.04879 24 ft 4 kts 81°
2026-04-26 07:26 5.92329 116.04913 24 ft 6 kts 66°
2026-04-26 07:26 5.92336 116.04930 24 ft 0 kts 68°